• Join FlightAware (Why Join?)
  • Login
  • US Flag 
10:24AM EDT


 

Airport Tracker/Info


-or-


 

Live Flight TrackerFlight Track Log ✈ N119BJ ✈ 24-Oct-2013 ✈ KHPN - KACY

Flight Track Log - Related Links

Times and Time Zones

All times are in EDT time to prevent confusion due to time zone crossing. See the N119BJ flight status page for this flight to view local times or setup timezone preferences in your user account.

Time Position Orientation Groundspeed Altitude Reporting Facility
EDT Latitude Longitude Course Direction KTS MPH feet Rate Location/Type
07:05PM 41.0500 -73.8833 201° Southwest 134 154 1,500  Level New York TRACON
07:06PM 41.0167 -73.9000 201° Southwest 140 161 1,500  Level New York TRACON
07:07PM 40.9833 -73.9000 180° South 130 150 1,500  Level New York TRACON
07:08PM 40.9500 -73.9167 201° Southwest 123 142 1,500  Level New York TRACON
07:09PM 40.9167 -73.9167 180° South 121 139 1,500  Level New York TRACON
07:10PM 40.8833 -73.9333 201° Southwest 120 138 1,500  Level New York TRACON
07:11PM 40.8500 -73.9500 201° Southwest 121 139 1,500 180 Level New York TRACON
07:12PM 40.8167 -73.9667 201° Southwest 108 124 1,900 240 Climbing New York TRACON
07:13PM 40.7833 -73.9833 201° Southwest 120 138 2,000  Climbing New York TRACON
07:14PM 40.7667 -74.0167 237° Southwest 121 139 2,000  Level New York TRACON
07:15PM 40.7333 -74.0167 180° South 126 145 2,000  Level New York TRACON
07:16PM 40.7000 -74.0333 201° Southwest 127 146 2,000  Level New York TRACON
07:17PM 40.6667 -74.0500 201° Southwest 127 146 2,100 420 Climbing New York TRACON
07:18PM 40.6333 -74.0500 180° South 128 147 2,900 660 Climbing New York TRACON
07:19PM 40.6000 -74.0667 201° Southwest 127 146 3,500 300 Climbing New York TRACON
07:20PM 40.5667 -74.0833 201° Southwest 132 152 3,500  Level New York TRACON
07:21PM 40.5333 -74.1000 201° Southwest 133 153 3,500  Level New York TRACON
07:22PM 40.4833 -74.1167 194° South 131 151 3,500  Level New York TRACON
07:23PM 40.4500 -74.1333 201° Southwest 134 154 3,500  Level New York TRACON
07:24PM 40.4167 -74.1500 201° Southwest 132 152 3,500  Level New York TRACON
07:25PM 40.3833 -74.1667 201° Southwest 131 151 3,500  Level New York TRACON
07:26PM 40.3500 -74.1833 201° Southwest 131 151 3,500  Level New York TRACON
07:27PM 40.3167 -74.1833 180° South 135 155 3,500 360 Level New York TRACON
07:28PM 40.2833 -74.2000 201° Southwest 132 152 4,200 480 Climbing New York TRACON
07:29PM 40.2500 -74.2167 201° Southwest 146 168 4,500 120 Climbing New York TRACON
07:30PM 40.2000 -74.2500 207° Southwest 137 158 4,500  Level New York TRACON
07:31PM 40.1667 -74.2500 180° South 137 158 4,500  Level New York TRACON
07:32PM 40.1333 -74.2667 201° Southwest 138 159 4,500  Level New York TRACON
07:33PM 40.1000 -74.2833 201° Southwest 138 159 4,500  Level New York TRACON
07:34PM 40.0667 -74.3167 217° Southwest 138 159 4,500  Level New York TRACON
07:35PM 40.0333 -74.3167 180° South 140 161 4,500  Level New York TRACON
07:36PM 39.9833 -74.3333 194° South 137 158 4,500  Level New York TRACON
07:37PM 39.9500 -74.3500 201° Southwest 135 155 4,500  Level New York TRACON
07:38PM 39.9167 -74.3667 201° Southwest 139 160 4,500  Level New York TRACON
07:39PM 39.8833 -74.3833 201° Southwest 138 159 4,500  Level New York TRACON
07:40PM 39.8500 -74.4167 218° Southwest 147 169 4,500  Level New York TRACON
07:41PM 39.8000 -74.4333 194° South 147 169 4,500  Level New York TRACON
07:42PM 39.7667 -74.4500 201° Southwest 144 166 4,500  Level New York TRACON
07:43PM 39.7333 -74.4500 180° South 142 163 4,500 -120 Level New York TRACON
07:44PM 39.7000 -74.4667 201° Southwest 146 168 4,300 -240 Descending New York TRACON
07:46PM 39.6287 -74.4922 198° South  Level FlightAware Approximate
07:53PM 39.4500 -74.5667 198° South  Level FlightAware Approximate
07:54PM 39.4576 -74.5772 198° South  Level Estimated
07:55PM 39.4576 -74.5772 198° South  Level Estimated
07:56PM 39.4576 -74.5772 198° South  Level Estimated
07:57PM 39.4576 -74.5772 198° South  Level Estimated
07:58PM 39.4576 -74.5772 198° South  Level Estimated